W6DSP Weather Reports


Display with metric or nautical units.
time (UTC)temp
F
wind
direction
speed
MPH
gust
MPH
rain 1hr
in
rain 24hr
in
rain mn
in
humidity
%
barometer
mb
20260905034033 76 145 0.0 0.0 0.00 0.00 0.00 92 1013.5
20260905032811 77 145 0.0 0.0 0.00 0.00 0.00 93 1013.6
20260905023946 77 145 0.0 0.0 0.00 0.00 0.00 92 1013.4
20260905022804 77 145 0.0 0.0 0.00 0.00 0.00 92 1013.3
20260905021625 78 145 0.0 0.0 0.00 0.00 0.00 92 1013.3
20260905020424 78 145 0.0 1.0 0.00 0.00 0.00 92 1013.2
20260905014018 78 145 0.0 1.0 0.00 0.00 0.00 92 1013.0
20260905011556 78 145 0.0 0.0 0.00 0.00 0.00 91 1013.0
20260905002805 79 145 0.0 0.0 0.00 0.00 0.00 90 1012.7
20260904230205 84 157 0.0 0.0 0.00 0.00 0.00 81 1012.6
20260904225020 84 155 0.0 4.0 0.00 0.00 0.00 80 1012.5
20260904212605 86 113 1.0 9.0 0.00 0.01 0.00 76 1013.0
20260904210139 86 151 0.0 4.0 0.00 0.01 0.00 77 1013.2
20260904201204 82 150 1.0 11.0 0.00 0.01 0.00 79 1012.2
20260904194832 82 206 3.0 8.0 0.00 0.01 0.00 79 1012.6
20260904193619 84 187 1.0 8.0 0.00 0.01 0.00 73 1013.7
20260904191112 83 108 4.0 14.0 0.00 0.01 0.00 75 1014.4
20260904181116 81 142 3.0 12.0 0.00 0.01 0.00 76 1016.2
20260904175853 81 81 5.0 18.0 0.00 0.01 0.00 74 1016.4
20260904165749 85 61 5.0 19.0 0.00 0.01 0.00 76 1015.6
20260904163320 90 355 3.0 11.0 0.00 0.01 0.00 68 1015.2
20260904162129 89 16 1.0 7.0 0.00 0.01 0.00 71 1015.2
20260904160958 88 337 3.0 11.0 0.00 0.01 0.00 74 1015.3
20260904155737 89 355 3.0 11.0 0.00 0.01 0.00 69 1015.3
20260904154557 89 5 1.0 4.0 0.00 0.01 0.00 72 1015.1
20260904152130 87 343 0.0 6.0 0.00 0.01 0.00 74 1014.9
20260904133354 79 291 0.0 4.0 0.00 0.01 0.00 87 1014.7
20260904130918 76 111 0.0 0.0 0.00 0.01 0.00 92 1014.7
20260904110822 72 111 0.0 0.0 0.00 0.01 0.00 93 1013.7
20260904104412 71 111 0.0 0.0 0.00 0.01 0.00 93 1013.4
20260904103140 71 111 0.0 1.0 0.00 0.01 0.00 93 1013.2
20260904102002 72 111 0.0 0.0 0.00 0.01 0.00 93 1012.9
20260904100807 71 111 0.0 0.0 0.00 0.01 0.00 93 1013.2
20260904095625 72 111 0.0 0.0 0.00 0.01 0.00 93 1013.3
20260904094409 72 111 0.0 0.0 0.00 0.01 0.00 93 1013.5
20260904093148 72 111 0.0 0.0 0.00 0.01 0.00 93 1013.6
20260904083309 72 111 0.0 0.0 0.00 0.01 0.00 92 1013.6
20260904082048 72 111 0.0 0.0 0.00 0.01 0.00 92 1013.2
20260904080839 73 111 0.0 0.0 0.00 0.01 0.00 92 1012.9
20260904074420 73 111 0.0 0.0 0.00 0.01 0.00 92 1013.1
20260904073141 73 111 0.0 0.0 0.00 0.01 0.00 92 1013.4
20260904070749 73 111 0.0 0.0 0.00 0.01 0.00 92 1013.9
20260904064322 73 111 0.0 0.0 0.00 0.01 0.00 92 1014.2
20260904061847 73 157 0.0 0.0 0.00 0.01 0.00 92 1014.2
20260904055447 74 159 0.0 1.0 0.00 0.01 0.00 92 1014.4
20260904051833 73 156 0.0 0.0 0.00 0.01 0.00 92 1014.5
20260904050702 73 156 0.0 0.0 0.00 0.01 0.00 91 1014.5
20260904045432 73 156 0.0 0.0 0.00 0.01 0.00 91 1014.5
20260904044217 73 156 0.0 0.0 0.00 0.01 0.00 91 1014.5